Weather History for Maxwell AFB, AL

Change the Weather History Date:

Monday, October 7, 2013

  Actual Average Record
Temperature  
Mean Temperature 66 °F -  
Max Temperature 76 °F 78 °F 89 °F (1997)
Min Temperature 58 °F 59 °F 45 °F (2010)
Cooling Degree Days 2    
Growing Degree Days 16 (Base 50)    
Moisture  
Dew Point 60 °F    
Average Humidity 83    
Maximum Humidity 100    
Minimum Humidity 47    
Precipitation  
Precipitation 0.13 in - - ()
Sea Level Pressure  
Sea Level Pressure 29.91 in    
Wind  
Wind Speed 9 mph (NW)    
Max Wind Speed 17 mph    
Max Gust Speed 23 mph    
Visibility 8 miles    
Events Rain    
Averages and records for this station are not official NWS values.
T = Trace of Precipitation, MM = Missing Value Source: NWS Daily Summary

Daily Weather History Graph

Daily Weather History Graph

Search for Another Location

Airport:

Trip Planner

Search our weather history database for the weather conditions in past years. The results will help you decide how hot, cold, wet, or windy it might be!

Date:

Astronomy

Oct. 07, 2013 Rise Set
Actual Time 6:43 AM CDT 6:22 PM CDT
Civil Twilight 6:19 AM CDT 6:46 PM CDT
Nautical Twilight 5:50 AM CDT 7:15 PM CDT
Astronomical Twilight 5:22 AM CDT 7:43 PM CDT
Moon 9:22 AM CDT (10/7) 8:17 PM CDT (10/7)
Length of Visible Light 12h 27m
Length of Day
11h 38m
Waxing Crescent, 9% of the Moon is Illuminated
Oct 7
Waxing Crescent
Oct 11
First Quarter
Oct 18
Full
Oct 26
Last Quarter
Nov 3
New

Hourly Weather History & Observations

Time (CDT) Temp. Dew Point Humidity Pressure Visibility Wind Dir Wind Speed Gust Speed Precip Events Conditions
12:03 AM 71.6 °F 69.8 °F 94% 29.86 in 2.5 mi SW 4.6 mph - N/A Rain Heavy Rain
12:08 AM 71.6 °F 71.6 °F 100% 29.86 in 2.5 mi SW 5.8 mph - N/A Rain Heavy Rain
12:13 AM 71.6 °F 69.8 °F 94% 29.86 in 2.5 mi SW 4.6 mph - N/A Rain Rain
12:18 AM 71.6 °F 69.8 °F 94% 29.86 in 3.0 mi SW 4.6 mph - N/A Rain Rain
12:28 AM 71.6 °F 69.8 °F 94% 29.86 in 3.0 mi WSW 6.9 mph - N/A Rain Rain
12:33 AM 71.6 °F 69.8 °F 94% 29.86 in 3.0 mi West 9.2 mph - N/A Rain Light Rain
12:38 AM 69.8 °F 69.8 °F 100% 29.87 in 4.0 mi WNW 15.0 mph 19.6 mph N/A Rain Light Rain
12:43 AM 68.0 °F 68.0 °F 100% 29.87 in 4.0 mi NW 12.7 mph 19.6 mph N/A   Light Drizzle
12:52 AM 66.2 °F 66.2 °F 100% 29.87 in 4.0 mi WNW 11.5 mph - N/A   Overcast
12:57 AM 66.2 °F 66.2 °F 100% 29.87 in 5.0 mi NW 17.3 mph 23.0 mph N/A   Overcast
12:58 AM 66.2 °F 66.2 °F 100% 29.88 in 5.0 mi NW 17.3 mph 23.0 mph 0.12 in   Overcast
1:03 AM 66.2 °F 64.4 °F 94% 29.87 in 7.0 mi NW 13.8 mph 23.0 mph N/A   Overcast
1:18 AM 64.4 °F 64.4 °F 100% 29.88 in 9.0 mi NW 9.2 mph 17.3 mph N/A   Overcast
1:20 AM 64.4 °F 64.4 °F 100% 29.88 in 8.0 mi NW 11.5 mph - N/A   Light Drizzle
1:40 AM 62.6 °F 62.6 °F 100% 29.89 in 9.0 mi NNW 10.4 mph 20.7 mph N/A   Light Drizzle
1:49 AM 62.6 °F 60.8 °F 94% 29.89 in 10.0 mi NNW 9.2 mph 20.7 mph N/A   Overcast
1:58 AM 62.8 °F 61.3 °F 95% 29.90 in 10.0 mi NNW 10.4 mph - 0.01 in   Overcast
2:13 AM 62.6 °F 60.8 °F 94% 29.89 in 10.0 mi NNW 12.7 mph - N/A   Overcast
2:58 AM 61.7 °F 59.7 °F 93% 29.89 in 10.0 mi North 10.4 mph - N/A   Overcast
3:03 AM 60.8 °F 59.0 °F 94% 29.88 in 10.0 mi North 11.5 mph - N/A   Overcast
3:08 AM 60.8 °F 59.0 °F 94% 29.88 in 10.0 mi North 12.7 mph - N/A   Overcast
3:58 AM 60.8 °F 57.6 °F 89% 29.90 in 10.0 mi North 9.2 mph - N/A   Overcast
4:58 AM 60.4 °F 56.8 °F 88% 29.90 in 10.0 mi North 9.2 mph - N/A   Overcast
5:58 AM 59.4 °F 56.8 °F 91% 29.92 in 10.0 mi NNW 5.8 mph - N/A   Mostly Cloudy
6:58 AM 58.8 °F 56.5 °F 92% 29.93 in 10.0 mi NNW 6.9 mph - N/A   Partly Cloudy
7:58 AM 60.8 °F 57.0 °F 87% 29.95 in 10.0 mi NNW 8.1 mph - N/A   Clear
8:58 AM 63.1 °F 57.2 °F 81% 29.95 in 10.0 mi North 8.1 mph - N/A   Clear
9:58 AM 65.8 °F 56.7 °F 72% 29.95 in 10.0 mi North 13.8 mph - N/A   Clear
10:58 AM 68.4 °F 56.5 °F 66% 29.96 in 10.0 mi North 10.4 mph - N/A   Clear
11:58 AM 71.2 °F 57.7 °F 62% 29.95 in 10.0 mi Variable 6.9 mph - N/A   Clear
12:58 PM 73.4 °F 56.7 °F 56% 29.94 in 10.0 mi NNW 12.7 mph - N/A   Clear
1:58 PM 74.5 °F 54.9 °F 50% 29.92 in 10.0 mi North 12.7 mph 19.6 mph N/A   Clear
2:58 PM 75.7 °F 54.1 °F 47% 29.90 in 10.0 mi North 15.0 mph - N/A   Clear
3:58 PM 75.9 °F 54.5 °F 47% 29.91 in 10.0 mi NNW 13.8 mph - N/A   Clear
4:58 PM 73.9 °F 54.9 °F 51% 29.92 in 10.0 mi North 11.5 mph 17.3 mph N/A   Clear
5:58 PM 71.2 °F 55.4 °F 57% 29.94 in 10.0 mi North 10.4 mph - N/A   Clear
6:58 PM 66.0 °F 55.8 °F 69% 29.95 in 10.0 mi NNW 6.9 mph - N/A   Clear
7:58 PM 63.7 °F 55.6 °F 75% 29.96 in 10.0 mi NW 3.5 mph - N/A   Clear
8:58 PM 63.0 °F 54.1 °F 73% 29.99 in 10.0 mi North 9.2 mph - N/A   Clear
9:58 PM 62.8 °F 53.1 °F 71% 30.00 in 10.0 mi North 10.4 mph - N/A   Clear
10:58 PM 61.3 °F 52.0 °F 71% 30.00 in 10.0 mi North 9.2 mph - N/A   Clear
11:58 PM 59.4 °F 51.6 °F 76% 29.99 in 10.0 mi North 8.1 mph - N/A   Clear